QPF
0.01 0.00 0.00 0.00 0.01 0.00 0.00 0.00 0.00 0.00 0.00 0.00 0.01 0.00 0.00 0.00 0.00 0.00 0.00 0.00 0.00 0.00 0.01 0.01 0.00 0.00 0.00 0.00 0.01 0.01 0.01 0.02 0.02 0.02 0.03 0.03 0.01 0.01 0.00 0.01 0.02 0.02 0.03 0.04
0.01 0.01 0.00 0.00 0.00 0.00 0.00 0.00 0.00 0.00 0.00 0.00 0.00 0.01 0.00 0.00 0.00 0.00 0.00 0.00 0.00 0.00 0.00 0.01 0.01 0.01 0.01 0.01 0.01 0.01 0.01 0.02 0.03 0.03 0.03 0.02 0.02 0.01 0.01 0.01 0.02 0.02 0.02 0.02
0.01 0.01 0.00 0.00 0.00 0.00 0.00 0.00 0.00 0.00 0.00 0.00 0.00 0.01 0.00 0.00 0.00 0.00 0.00 0.00 0.00 0.00 0.02 0.02 0.01 0.01 0.02 0.02 0.01 0.01 0.01 0.02 0.02 0.02 0.02 0.02 0.03 0.03 0.03 0.04 0.03 0.02 0.01 0.01
0.01 0.01 0.02 0.01 0.00 0.00 0.00 0.00 0.00 0.00 0.01 0.01 0.01 0.01 0.00 0.00 0.00 0.00 0.00 0.00 0.00 0.00 0.01 0.01 0.01 0.01 0.02 0.02 0.01 0.01 0.02 0.02 0.02 0.02 0.02 0.03 0.04 0.05 0.05 0.04 0.02 0.01 0.01 0.02
0.01 0.01 0.01 0.01 0.00 0.00 0.01 0.01 0.01 0.01 0.01 0.02 0.02 0.01 0.00 0.00 0.00 0.00 0.00 0.00 0.00 0.00 0.01 0.01 0.01 0.01 0.02 0.02 0.01 0.01 0.01 0.01 0.01 0.02 0.03 0.04 0.04 0.04 0.04 0.03 0.02 0.02 0.02 0.02
0.01 0.02 0.02 0.01 0.00 0.00 0.01 0.01 0.01 0.01 0.01 0.00 0.00 0.00 0.01 0.00 0.00 0.01 0.01 0.00 0.00 0.01 0.01 0.01 0.01 0.01 0.01 0.02 0.02 0.02 0.02 0.02 0.03 0.04 0.04 0.04 0.03 0.02 0.02 0.01 0.01 0.01 0.01 0.01
0.01 0.01 0.01 0.01 0.00 0.01 0.01 0.01 0.01 0.00 0.00 0.01 0.00 0.01 0.01 0.00 0.00 0.01 0.01 0.00 0.01 0.01 0.01 0.02 0.02 0.01 0.01 0.02 0.02 0.03 0.04 0.04 0.03 0.02 0.02 0.02 0.03 0.02 0.02 0.02 0.02 0.01 0.01 0.01
0.01 0.02 0.01 0.00 0.00 0.01 0.01 0.01 0.01 0.01 0.00 0.01 0.00 0.01 0.01 0.00 0.00 0.00 0.00 0.00 0.01 0.01 0.01 0.01 0.02 0.01 0.01 0.01 0.02 0.03 0.03 0.02 0.02 0.03 0.02 0.02 0.03 0.03 0.03 0.02 0.02 0.02 0.02 0.02
0.01 0.02 0.01 0.01 0.02 0.01 0.01 0.02 0.03 0.01 0.01 0.01 0.01 0.01 0.01 0.01 0.00 0.00 0.00 0.01 0.01 0.01 0.00 0.00 0.01 0.01 0.01 0.01 0.01 0.02 0.03 0.03 0.03 0.03 0.03 0.03 0.04 0.04 0.06 0.05 0.04 0.04 0.05 0.04
0.00 0.00 0.01 0.02 0.01 0.01 0.03 0.05 0.05 0.03 0.02 0.01 0.01 0.01 0.01 0.00 0.01 0.01 0.01 0.01 0.01 0.01 0.01 0.01 0.01 0.01 0.00 0.00 0.00 0.01 0.01 0.02 0.02 0.02 0.03 0.04 0.06 0.06 0.05 0.05 0.06 0.08 0.09 0.09
0.01 0.01 0.03 0.03 0.02 0.02 0.06 0.08 0.07 0.04 0.02 0.02 0.02 0.01 0.01 0.01 0.01 0.02 0.03 0.02 0.01 0.01 0.02 0.03 0.04 0.02 0.01 0.00 0.00 0.00 0.01 0.01 0.02 0.02 0.02 0.02 0.03 0.05 0.06 0.06 0.08 0.08 0.07 0.07
0.03 0.04 0.04 0.03 0.02 0.02 0.04 0.06 0.07 0.05 0.03 0.02 0.02 0.02 0.03 0.02 0.02 0.04 0.04 0.02 0.02 0.02 0.02 0.02 0.03 0.02 0.02 0.01 0.01 0.01 0.01 0.01 0.01 0.01 0.01 0.01 0.02 0.03 0.03 0.04 0.05 0.05 0.05 0.06
0.04 0.03 0.03 0.02 0.01 0.01 0.01 0.03 0.03 0.05 0.06 0.06 0.05 0.04 0.04 0.03 0.02 0.02 0.03 0.02 0.02 0.02 0.02 0.02 0.02 0.02 0.03 0.03 0.02 0.02 0.02 0.01 0.01 0.02 0.02 0.02 0.02 0.03 0.04 0.04 0.04 0.03 0.03 0.03
0.03 0.02 0.01 0.02 0.02 0.01 0.01 0.01 0.02 0.02 0.03 0.04 0.04 0.04 0.03 0.02 0.01 0.01 0.02 0.02 0.02 0.02 0.02 0.02 0.02 0.02 0.02 0.02 0.03 0.02 0.02 0.02 0.02 0.03 0.03 0.04 0.04 0.05 0.06 0.06 0.05 0.05 0.05 0.05
0.03 0.01 0.01 0.01 0.02 0.01 0.01 0.02 0.03 0.01 0.01 0.02 0.02 0.03 0.03 0.02 0.02 0.02 0.01 0.01 0.02 0.02 0.02 0.02 0.01 0.01 0.02 0.02 0.03 0.03 0.03 0.02 0.02 0.03 0.04 0.05 0.07 0.09 0.10 0.09 0.07 0.05 0.05 0.04
0.06 0.03 0.01 0.01 0.02 0.02 0.02 0.03 0.04 0.05 0.02 0.01 0.01 0.02 0.02 0.02 0.01 0.01 0.01 0.01 0.02 0.01 0.01 0.01 0.02 0.01 0.02 0.02 0.03 0.03 0.03 0.03 0.03 0.03 0.05 0.06 0.07 0.09 0.10 0.10 0.09 0.06 0.04 0.04
0.05 0.04 0.03 0.02 0.02 0.02 0.03 0.06 0.04 0.03 0.02 0.02 0.01 0.01 0.01 0.01 0.01 0.01 0.01 0.01 0.01 0.01 0.01 0.01 0.01 0.01 0.02 0.02 0.03 0.03 0.02 0.02 0.02 0.02 0.04 0.06 0.08 0.09 0.09 0.09 0.09 0.07 0.06 0.06
0.04 0.03 0.06 0.06 0.04 0.03 0.02 0.04 0.07 0.05 0.03 0.03 0.03 0.03 0.03 0.03 0.03 0.02 0.01 0.01 0.01 0.01 0.01 0.01 0.01 0.01 0.02 0.03 0.03 0.02 0.04 0.03 0.02 0.02 0.04 0.06 0.08 0.10 0.11 0.08 0.08 0.08 0.09 0.10
0.02 0.02 0.03 0.04 0.03 0.03 0.04 0.06 0.09 0.08 0.06 0.05 0.07 0.07 0.06 0.04 0.03 0.02 0.01 0.01 0.01 0.01 0.01 0.01 0.01 0.00 0.01 0.02 0.02 0.02 0.04 0.04 0.03 0.03 0.04 0.05 0.05 0.07 0.09 0.10 0.10 0.09 0.11 0.12
0.04 0.02 0.02 0.02 0.03 0.06 0.09 0.12 0.11 0.07 0.08 0.07 0.07 0.09 0.08 0.06 0.04 0.02 0.02 0.01 0.01 0.00 0.01 0.01 0.01 0.01 0.01 0.01 0.01 0.01 0.03 0.04 0.03 0.01 0.02 0.03 0.04 0.05 0.06 0.08 0.10 0.13 0.14 0.15
0.06 0.05 0.04 0.04 0.07 0.11 0.11 0.12 0.09 0.06 0.06 0.05 0.04 0.05 0.07 0.06 0.04 0.02 0.02 0.01 0.01 0.01 0.01 0.02 0.02 0.02 0.01 0.01 0.01 0.01 0.02 0.02 0.02 0.02 0.02 0.02 0.03 0.03 0.04 0.05 0.07 0.10 0.13 0.14
0.07 0.07 0.07 0.09 0.12 0.15 0.14 0.14 0.12 0.08 0.06 0.05 0.05 0.04 0.05 0.05 0.03 0.02 0.02 0.02 0.02 0.02 0.01 0.01 0.02 0.02 0.02 0.02 0.02 0.02 0.02 0.02 0.02 0.02 0.03 0.03 0.03 0.03 0.03 0.04 0.05 0.06 0.08 0.11
0.07 0.06 0.05 0.09 0.12 0.16 0.16 0.12 0.10 0.09 0.09 0.07 0.05 0.05 0.05 0.04 0.03 0.03 0.02 0.02 0.02 0.02 0.02 0.02 0.02 0.03 0.03 0.03 0.03 0.03 0.03 0.03 0.03 0.03 0.03 0.03 0.03 0.03 0.03 0.04 0.04 0.05 0.06 0.06
0.10 0.09 0.06 0.08 0.11 0.12 0.16 0.13 0.07 0.06 0.05 0.05 0.04 0.04 0.04 0.03 0.03 0.03 0.03 0.03 0.03 0.03 0.02 0.03 0.02 0.02 0.02 0.02 0.02 0.02 0.02 0.02 0.03 0.03 0.03 0.03 0.03 0.03 0.04 0.04 0.04 0.04 0.04 0.03
0.13 0.09 0.06 0.07 0.07 0.07 0.08 0.06 0.04 0.03 0.02 0.02 0.02 0.02 0.03 0.03 0.04 0.05 0.04 0.03 0.03 0.01 0.01 0.02 0.02 0.02 0.02 0.03 0.03 0.02 0.02 0.02 0.03 0.04 0.04 0.03 0.03 0.03 0.04 0.05 0.04 0.03 0.04 0.04
0.11 0.08 0.07 0.06 0.03 0.03 0.02 0.02 0.02 0.01 0.01 0.01 0.02 0.03 0.03 0.03 0.04 0.04 0.04 0.03 0.02 0.02 0.01 0.02 0.02 0.01 0.02 0.02 0.03 0.03 0.03 0.03 0.04 0.03 0.03 0.03 0.03 0.04 0.05 0.05 0.05 0.05 0.05 0.06
0.07 0.07 0.06 0.04 0.02 0.01 0.01 0.01 0.01 0.02 0.03 0.04 0.05 0.05 0.04 0.04 0.03 0.03 0.03 0.02 0.02 0.02 0.02 0.02 0.03 0.02 0.01 0.02 0.02 0.02 0.03 0.03 0.03 0.03 0.04 0.04 0.04 0.06 0.06 0.06 0.05 0.06 0.05 0.06
MSLP
1005.45 1005.10 1004.81 1004.64 1004.62 1004.73 1004.93 1005.14 1005.31 1005.35 1005.25 1005.01 1004.67 1004.28 1003.94 1003.69 1003.58 1003.63 1003.83 1004.14 1004.50 1004.88 1005.23 1005.55 1005.84 1006.12 1006.44 1006.82 1007.27 1007.80 1008.38 1008.95 1009.49 1009.95 1010.30 1010.53 1010.65 1010.71 1010.74 1010.78 1010.86 1010.98 1011.15 1011.33
1006.33 1005.88 1005.40 1004.95 1004.61 1004.41 1004.33 1004.35 1004.43 1004.51 1004.56 1004.57 1004.51 1004.43 1004.34 1004.28 1004.27 1004.32 1004.43 1004.58 1004.75 1004.93 1005.11 1005.28 1005.47 1005.69 1005.97 1006.32 1006.76 1007.25 1007.79 1008.33 1008.83 1009.27 1009.61 1009.86 1010.03 1010.14 1010.23 1010.31 1010.41 1010.53 1010.67 1010.80
1007.15 1006.65 1006.03 1005.38 1004.80 1004.34 1004.03 1003.88 1003.88 1003.98 1004.15 1004.34 1004.53 1004.70 1004.83 1004.94 1005.03 1005.09 1005.14 1005.17 1005.19 1005.21 1005.24 1005.28 1005.35 1005.49 1005.69 1005.97 1006.33 1006.74 1007.19 1007.65 1008.08 1008.47 1008.79 1009.06 1009.26 1009.43 1009.57 1009.70 1009.83 1009.95 1010.06 1010.15
1007.81 1007.29 1006.59 1005.82 1005.07 1004.42 1003.95 1003.67 1003.60 1003.71 1003.96 1004.29 1004.67 1005.03 1005.35 1005.61 1005.78 1005.88 1005.91 1005.87 1005.79 1005.69 1005.59 1005.51 1005.47 1005.49 1005.58 1005.75 1005.98 1006.26 1006.58 1006.92 1007.25 1007.56 1007.85 1008.11 1008.34 1008.55 1008.75 1008.93 1009.09 1009.22 1009.32 1009.37
1008.23 1007.71 1006.98 1006.14 1005.30 1004.54 1003.96 1003.60 1003.48 1003.59 1003.90 1004.33 1004.84 1005.35 1005.82 1006.20 1006.47 1006.62 1006.65 1006.59 1006.45 1006.27 1006.08 1005.90 1005.75 1005.65 1005.61 1005.63 1005.71 1005.83 1005.99 1006.17 1006.38 1006.60 1006.83 1007.06 1007.31 1007.55 1007.79 1008.01 1008.20 1008.34 1008.42 1008.44
1008.38 1007.86 1007.13 1006.28 1005.40 1004.61 1003.98 1003.58 1003.44 1003.55 1003.89 1004.39 1004.98 1005.60 1006.17 1006.65 1007.00 1007.21 1007.28 1007.22 1007.07 1006.85 1006.60 1006.34 1006.10 1005.89 1005.72 1005.59 1005.50 1005.46 1005.45 1005.48 1005.55 1005.66 1005.82 1006.01 1006.24 1006.50 1006.75 1006.99 1007.19 1007.33 1007.40 1007.39
1008.26 1007.75 1007.05 1006.22 1005.37 1004.58 1003.96 1003.56 1003.41 1003.53 1003.88 1004.42 1005.06 1005.73 1006.37 1006.92 1007.33 1007.59 1007.70 1007.67 1007.53 1007.31 1007.04 1006.74 1006.44 1006.15 1005.87 1005.62 1005.39 1005.19 1005.03 1004.91 1004.85 1004.85 1004.91 1005.05 1005.24 1005.46 1005.70 1005.93 1006.11 1006.23 1006.28 1006.26
1007.95 1007.45 1006.79 1006.02 1005.23 1004.50 1003.92 1003.54 1003.41 1003.54 1003.89 1004.42 1005.06 1005.75 1006.40 1006.97 1007.42 1007.72 1007.87 1007.88 1007.77 1007.58 1007.32 1007.02 1006.70 1006.37 1006.03 1005.70 1005.37 1005.06 1004.78 1004.53 1004.35 1004.24 1004.20 1004.24 1004.35 1004.51 1004.69 1004.86 1005.00 1005.08 1005.10 1005.05
1007.54 1007.06 1006.46 1005.77 1005.06 1004.42 1003.90 1003.58 1003.47 1003.59 1003.92 1004.41 1005.02 1005.66 1006.29 1006.84 1007.28 1007.59 1007.77 1007.81 1007.75 1007.61 1007.39 1007.14 1006.85 1006.53 1006.18 1005.82 1005.45 1005.07 1004.70 1004.36 1004.07 1003.84 1003.69 1003.61 1003.61 1003.65 1003.73 1003.81 1003.87 1003.89 1003.87 1003.81
1007.12 1006.67 1006.13 1005.54 1004.94 1004.40 1003.97 1003.70 1003.61 1003.71 1004.00 1004.42 1004.94 1005.51 1006.06 1006.55 1006.95 1007.25 1007.43 1007.51 1007.49 1007.41 1007.27 1007.08 1006.85 1006.59 1006.29 1005.95 1005.57 1005.17 1004.76 1004.34 1003.95 1003.61 1003.32 1003.10 1002.94 1002.84 1002.78 1002.74 1002.70 1002.65 1002.59 1002.53
1006.74 1006.33 1005.88 1005.39 1004.91 1004.47 1004.13 1003.90 1003.83 1003.90 1004.12 1004.45 1004.86 1005.30 1005.74 1006.14 1006.47 1006.73 1006.90 1007.00 1007.03 1007.01 1006.95 1006.85 1006.72 1006.54 1006.31 1006.02 1005.67 1005.27 1004.83 1004.35 1003.87 1003.40 1002.96 1002.58 1002.25 1001.98 1001.77 1001.59 1001.45 1001.34 1001.26 1001.21
1006.39 1006.04 1005.68 1005.30 1004.93 1004.59 1004.32 1004.13 1004.05 1004.08 1004.22 1004.44 1004.72 1005.04 1005.35 1005.64 1005.89 1006.09 1006.25 1006.35 1006.42 1006.46 1006.48 1006.47 1006.42 1006.33 1006.17 1005.94 1005.63 1005.23 1004.75 1004.22 1003.64 1003.04 1002.45 1001.90 1001.40 1000.96 1000.60 1000.30 1000.08 999.92 999.84 999.84
1006.02 1005.74 1005.46 1005.18 1004.91 1004.65 1004.43 1004.27 1004.18 1004.16 1004.21 1004.32 1004.49 1004.68 1004.88 1005.07 1005.24 1005.39 1005.52 1005.63 1005.72 1005.81 1005.89 1005.94 1005.96 1005.93 1005.82 1005.62 1005.32 1004.91 1004.39 1003.78 1003.10 1002.38 1001.65 1000.94 1000.28 999.71 999.22 998.84 998.56 998.41 998.36 998.43
1005.56 1005.33 1005.12 1004.92 1004.71 1004.52 1004.33 1004.18 1004.07 1004.00 1003.98 1004.01 1004.08 1004.18 1004.29 1004.41 1004.52 1004.64 1004.75 1004.86 1004.98 1005.09 1005.19 1005.28 1005.32 1005.30 1005.20 1005.00 1004.67 1004.21 1003.63 1002.93 1002.16 1001.32 1000.47 999.64 998.88 998.20 997.65 997.23 996.96 996.84 996.87 997.05
1004.92 1004.74 1004.57 1004.41 1004.24 1004.07 1003.91 1003.75 1003.62 1003.52 1003.46 1003.44 1003.46 1003.50 1003.57 1003.66 1003.76 1003.86 1003.98 1004.09 1004.21 1004.32 1004.42 1004.49 1004.51 1004.46 1004.31 1004.05 1003.66 1003.13 1002.47 1001.69 1000.82 999.90 998.97 998.08 997.26 996.55 995.99 995.59 995.37 995.33 995.47 995.76
1004.10 1003.92 1003.76 1003.60 1003.44 1003.28 1003.11 1002.95 1002.81 1002.70 1002.62 1002.59 1002.61 1002.66 1002.74 1002.85 1002.96 1003.09 1003.22 1003.34 1003.45 1003.55 1003.61 1003.62 1003.57 1003.44 1003.21 1002.85 1002.37 1001.75 1001.00 1000.16 999.23 998.27 997.31 996.41 995.60 994.93 994.43 994.10 993.98 994.05 994.30 994.71
1003.13 1002.91 1002.72 1002.53 1002.34 1002.16 1001.98 1001.81 1001.68 1001.58 1001.54 1001.54 1001.60 1001.71 1001.85 1002.01 1002.19 1002.36 1002.52 1002.66 1002.75 1002.81 1002.81 1002.74 1002.60 1002.36 1002.01 1001.54 1000.96 1000.25 999.45 998.56 997.62 996.67 995.75 994.90 994.17 993.59 993.19 992.99 992.98 993.16 993.52 994.02
1002.09 1001.80 1001.54 1001.30 1001.07 1000.85 1000.65 1000.49 1000.38 1000.32 1000.34 1000.42 1000.56 1000.76 1001.00 1001.25 1001.51 1001.74 1001.94 1002.08 1002.17 1002.18 1002.10 1001.94 1001.69 1001.34 1000.88 1000.31 999.64 998.88 998.05 997.17 996.27 995.38 994.55 993.82 993.22 992.78 992.51 992.44 992.55 992.84 993.27 993.83
1001.11 1000.73 1000.39 1000.08 999.80 999.55 999.35 999.20 999.12 999.13 999.23 999.40 999.66 999.96 1000.31 1000.66 1001.00 1001.30 1001.53 1001.69 1001.75 1001.72 1001.58 1001.33 1000.99 1000.54 1000.00 999.37 998.66 997.89 997.08 996.26 995.45 994.68 993.99 993.41 992.97 992.68 992.56 992.61 992.82 993.17 993.65 994.20
1000.33 999.86 999.44 999.07 998.74 998.47 998.27 998.15 998.13 998.21 998.40 998.67 999.03 999.45 999.90 1000.34 1000.75 1001.10 1001.36 1001.52 1001.57 1001.49 1001.30 1001.00 1000.59 1000.09 999.51 998.87 998.17 997.45 996.72 996.00 995.32 994.71 994.18 993.77 993.49 993.35 993.36 993.51 993.78 994.16 994.62 995.13
999.85 999.31 998.83 998.41 998.06 997.79 997.61 997.53 997.57 997.72 997.99 998.36 998.81 999.31 999.83 1000.33 1000.79 1001.16 1001.44 1001.60 1001.62 1001.53 1001.31 1000.98 1000.56 1000.05 999.49 998.89 998.26 997.64 997.02 996.45 995.93 995.48 995.12 994.87 994.74 994.72 994.81 995.02 995.31 995.68 996.09 996.52
999.71 999.13 998.63 998.20 997.85 997.60 997.45 997.43 997.52 997.74 998.07 998.51 999.01 999.56 1000.12 1000.65 1001.11 1001.49 1001.76 1001.90 1001.92 1001.81 1001.59 1001.27 1000.87 1000.42 999.93 999.41 998.90 998.40 997.94 997.52 997.16 996.87 996.66 996.54 996.52 996.58 996.73 996.95 997.23 997.54 997.88 998.22
999.91 999.34 998.85 998.45 998.13 997.91 997.81 997.84 997.98 998.25 998.62 999.09 999.61 1000.17 1000.72 1001.23 1001.67 1002.02 1002.26 1002.39 1002.39 1002.29 1002.09 1001.82 1001.48 1001.11 1000.73 1000.34 999.96 999.61 999.30 999.03 998.82 998.67 998.58 998.55 998.59 998.69 998.85 999.05 999.29 999.54 999.79 1000.03
1000.41 999.90 999.46 999.10 998.83 998.67 998.62 998.68 998.86 999.16 999.55 1000.01 1000.51 1001.04 1001.54 1002.00 1002.39 1002.69 1002.89 1002.98 1002.98 1002.89 1002.74 1002.53 1002.28 1002.02 1001.76 1001.51 1001.28 1001.08 1000.91 1000.78 1000.68 1000.63 1000.61 1000.63 1000.70 1000.80 1000.94 1001.10 1001.28 1001.46 1001.64 1001.81
1001.16 1000.73 1000.36 1000.07 999.86 999.75 999.74 999.84 1000.04 1000.34 1000.71 1001.14 1001.60 1002.06 1002.49 1002.87 1003.18 1003.42 1003.57 1003.64 1003.63 1003.57 1003.46 1003.32 1003.18 1003.04 1002.90 1002.79 1002.70 1002.62 1002.57 1002.54 1002.53 1002.53 1002.55 1002.59 1002.65 1002.72 1002.82 1002.92 1003.04 1003.17 1003.29 1003.40
1002.10 1001.76 1001.47 1001.24 1001.09 1001.03 1001.05 1001.17 1001.37 1001.65 1001.99 1002.37 1002.76 1003.13 1003.47 1003.77 1004.00 1004.16 1004.26 1004.30 1004.30 1004.26 1004.20 1004.15 1004.10 1004.06 1004.05 1004.05 1004.07 1004.10 1004.14 1004.18 1004.21 1004.24 1004.26 1004.29 1004.32 1004.35 1004.40 1004.46 1004.53 1004.60 1004.68 1004.76
1003.17 1002.91 1002.70 1002.53 1002.42 1002.39 1002.44 1002.56 1002.75 1003.00 1003.29 1003.61 1003.92 1004.21 1004.46 1004.66 1004.82 1004.91 1004.97 1004.98 1004.98 1004.97 1004.96 1004.97 1005.01 1005.07 1005.15 1005.25 1005.35 1005.46 1005.55 1005.63 1005.68 1005.72 1005.73 1005.73 1005.72 1005.71 1005.71 1005.72 1005.75 1005.79 1005.84 1005.90
Thickness
5805 5820 5826 5826 5827 5832 5828 5829 5822 5824 5827 5833 5841 5845 5850 5851 5850 5846 5842 5842 5840 5836 5833 5829 5829 5827 5825 5822 5819 5816 5811 5805 5801 5798 5796 5793 5790 5788 5786 5784 5782 5780 5778 5776
5791 5809 5816 5815 5824 5828 5830 5833 5830 5828 5827 5845 5848 5848 5845 5845 5844 5839 5837 5837 5836 5834 5831 5827 5825 5824 5823 5820 5818 5814 5809 5805 5801 5798 5794 5791 5788 5786 5784 5781 5780 5778 5776 5775
5772 5793 5800 5795 5817 5823 5826 5834 5831 5819 5828 5841 5837 5836 5837 5838 5838 5836 5835 5834 5832 5830 5828 5827 5825 5824 5820 5818 5816 5812 5808 5804 5801 5797 5793 5790 5787 5784 5781 5779 5777 5775 5773 5772
5768 5772 5760 5801 5834 5834 5828 5832 5838 5834 5836 5836 5832 5835 5837 5839 5836 5833 5832 5831 5829 5829 5827 5826 5826 5823 5820 5817 5813 5809 5806 5803 5800 5795 5791 5788 5784 5781 5778 5776 5774 5772 5770 5768
5759 5759 5772 5800 5821 5826 5818 5817 5834 5831 5831 5833 5834 5828 5826 5835 5836 5832 5831 5829 5827 5827 5827 5824 5822 5820 5816 5812 5808 5805 5802 5799 5797 5794 5790 5786 5782 5779 5776 5774 5771 5769 5767 5765
5752 5746 5753 5788 5820 5835 5821 5799 5829 5830 5827 5826 5823 5804 5808 5826 5829 5827 5827 5825 5823 5822 5822 5819 5818 5816 5810 5806 5803 5799 5798 5796 5795 5792 5788 5784 5781 5777 5775 5772 5769 5766 5764 5762
5744 5744 5762 5801 5819 5820 5785 5789 5820 5824 5822 5821 5815 5812 5816 5821 5819 5819 5818 5817 5816 5815 5812 5812 5812 5809 5803 5799 5797 5797 5796 5793 5790 5788 5785 5782 5779 5775 5772 5768 5765 5762 5760 5759
5740 5734 5750 5796 5803 5793 5792 5809 5813 5814 5815 5811 5809 5812 5812 5810 5808 5808 5808 5808 5807 5805 5804 5805 5804 5801 5795 5793 5794 5793 5790 5786 5784 5782 5781 5780 5774 5771 5768 5764 5760 5758 5755 5753
5750 5751 5772 5789 5790 5797 5803 5800 5802 5804 5805 5804 5801 5799 5800 5798 5798 5799 5799 5798 5799 5797 5795 5796 5796 5793 5788 5788 5788 5786 5782 5780 5778 5777 5776 5774 5770 5766 5762 5759 5756 5753 5750 5748
5750 5758 5769 5776 5783 5789 5793 5793 5796 5799 5797 5795 5790 5789 5788 5788 5789 5789 5789 5788 5789 5787 5785 5784 5785 5785 5783 5782 5781 5778 5774 5772 5772 5770 5769 5767 5765 5762 5758 5755 5751 5750 5747 5745
5741 5751 5758 5763 5770 5776 5781 5785 5787 5789 5790 5788 5783 5781 5780 5779 5779 5779 5779 5780 5780 5778 5775 5775 5775 5775 5775 5774 5773 5769 5767 5766 5765 5763 5763 5760 5758 5757 5755 5752 5750 5745 5745 5742
5727 5741 5744 5749 5760 5766 5767 5770 5774 5775 5775 5777 5776 5773 5773 5771 5771 5771 5770 5770 5770 5769 5768 5766 5764 5765 5765 5765 5764 5761 5758 5757 5757 5757 5757 5755 5752 5749 5747 5746 5743 5741 5738 5734
5728 5738 5742 5746 5752 5757 5757 5760 5764 5765 5764 5764 5765 5766 5765 5763 5763 5763 5762 5761 5760 5760 5759 5757 5756 5755 5755 5756 5754 5752 5750 5750 5750 5750 5750 5749 5747 5743 5739 5736 5734 5732 5729 5726
5722 5724 5726 5734 5738 5745 5747 5750 5752 5754 5755 5756 5755 5756 5756 5755 5754 5753 5752 5753 5753 5752 5750 5748 5746 5746 5747 5747 5745 5743 5743 5743 5742 5743 5743 5743 5741 5739 5735 5731 5727 5725 5722 5718
5711 5715 5719 5725 5730 5734 5738 5739 5738 5740 5742 5744 5745 5745 5745 5744 5743 5744 5745 5746 5744 5741 5740 5738 5737 5737 5739 5738 5736 5734 5734 5735 5735 5735 5735 5735 5735 5732 5730 5726 5722 5719 5716 5712
5701 5707 5712 5714 5716 5721 5725 5726 5726 5727 5729 5732 5734 5735 5736 5737 5736 5736 5736 5736 5733 5730 5730 5729 5728 5729 5730 5729 5727 5726 5726 5726 5725 5726 5726 5726 5725 5723 5720 5717 5714 5711 5708 5705
5690 5693 5697 5701 5707 5711 5715 5716 5718 5719 5721 5723 5724 5726 5726 5726 5726 5725 5725 5726 5725 5722 5722 5721 5720 5721 5722 5721 5719 5719 5720 5719 5717 5717 5717 5717 5715 5714 5711 5708 5705 5703 5700 5698
5690 5692 5694 5695 5699 5703 5705 5708 5710 5710 5712 5715 5717 5716 5716 5716 5714 5713 5714 5715 5714 5713 5713 5713 5713 5713 5713 5712 5711 5711 5712 5713 5711 5710 5709 5708 5706 5704 5702 5699 5696 5694 5692 5689
5685 5686 5687 5690 5693 5696 5697 5699 5701 5704 5705 5706 5707 5706 5706 5706 5706 5705 5705 5704 5703 5701 5703 5706 5703 5704 5705 5705 5703 5704 5705 5705 5704 5703 5701 5698 5697 5695 5693 5691 5688 5686 5683 5679
5678 5680 5682 5685 5688 5689 5690 5691 5693 5694 5696 5696 5696 5696 5695 5695 5696 5696 5695 5694 5696 5697 5697 5697 5697 5697 5698 5697 5695 5697 5697 5696 5695 5694 5692 5690 5688 5685 5683 5681 5679 5676 5673 5670
5671 5673 5674 5676 5678 5680 5682 5683 5685 5685 5686 5686 5685 5685 5685 5685 5685 5686 5685 5685 5688 5690 5689 5687 5688 5689 5689 5688 5686 5689 5689 5688 5686 5684 5683 5681 5678 5675 5672 5670 5668 5666 5664 5660
5663 5665 5665 5666 5668 5669 5671 5674 5675 5676 5677 5677 5678 5677 5676 5674 5675 5676 5678 5678 5679 5678 5679 5680 5681 5678 5678 5677 5680 5680 5679 5678 5676 5675 5674 5671 5668 5665 5662 5659 5657 5656 5654 5651
5654 5655 5656 5656 5658 5660 5662 5664 5666 5668 5669 5669 5669 5668 5668 5668 5669 5669 5668 5671 5673 5670 5671 5671 5669 5667 5666 5669 5671 5670 5670 5668 5667 5666 5664 5661 5658 5655 5652 5650 5647 5645 5643 5639
5646 5647 5649 5650 5652 5652 5652 5655 5657 5660 5662 5663 5663 5663 5662 5662 5662 5664 5664 5663 5662 5661 5662 5660 5659 5659 5658 5661 5662 5661 5660 5658 5657 5655 5654 5651 5648 5645 5643 5640 5637 5634 5632 5629
5638 5640 5642 5643 5643 5645 5646 5647 5649 5652 5653 5655 5657 5658 5658 5659 5658 5658 5658 5657 5655 5654 5654 5652 5651 5651 5652 5653 5652 5650 5648 5647 5645 5643 5642 5640 5638 5635 5632 5629 5626 5623 5620 5618
5633 5634 5636 5638 5639 5640 5642 5643 5644 5646 5648 5649 5650 5652 5652 5652 5652 5651 5650 5649 5649 5647 5647 5646 5645 5643 5644 5644 5642 5640 5638 5636 5635 5633 5631 5629 5627 5624 5621 5618 5615 5612 5608 5604
5629 5630 5631 5633 5636 5637 5639 5640 5640 5640 5642 5642 5642 5643 5644 5644 5644 5644 5643 5642 5642 5641 5640 5639 5638 5637 5635 5634 5633 5631 5628 5625 5623 5621 5619 5617 5615 5612 5610 5606 5603 5599 5595 5591